Location: Bright Sky Observatory
(40.7821°N, 74.2425°W)
Time: 02:33:02
(UTC-04:00)

Amateur Radio Satellites - All Passes

Search period start: 02 August 2014 02:03
Search period end: 03 August 2014 02:03
Location: Bright Sky Observatory, 40.7821°N, 74.2425°W

Satellite Date Start Highest point End Downlink Frequencies (MHz)
Time Altitude Azimuth
AO-27 02 Aug 02:04:42 02:08:08 18° 92° (E) 02:11:32 436.795 MHz FM
AO-Echo 02 Aug 02:07:02 02:10:29 19° 92° (E) 02:13:50 ?
ISS 02 Aug 02:08:36 02:10:24 14° 7° (N) 02:12:12 145.800 FM
Sapphire 02 Aug 02:12:57 02:15:49 14° 320° (NW) 02:18:42 437.095 MHz 1200 baud AX-25 AFSK
Oscar 19 02 Aug 02:23:16 02:28:23 59° 101° (E) 02:33:30 437.125 CW, 437.150 USB
OPAL 02 Aug 02:43:10 02:45:46 15° 58° (ENE) 02:48:23 ?
Gurwin Techsat 1B 02 Aug 02:51:04 02:55:00 21° 93° (E) 02:58:54 435.225 FM
Oscar 16 02 Aug 02:52:26 02:57:36 72° 286° (WNW) 03:02:45 437.025 USB, Beacon 2401.1428
JAS-1B 02 Aug 02:52:33 03:00:56 41° 93° (E) 03:08:05 435.800 - 435.900 CW/SSB
ITAMSAT 1 02 Aug 03:22:23 03:27:35 86° 285° (WNW) 03:32:45 435.822 SSB
Uribyol 2 02 Aug 03:40:50 03:45:52 55° 288° (WNW) 03:50:53 436.500 FM
AO-27 02 Aug 03:42:55 03:47:58 55° 288° (WNW) 03:53:00 436.795 MHz FM
AO-Echo 02 Aug 03:44:44 03:49:32 47° 289° (WNW) 03:54:10 ?
ISS 02 Aug 03:44:53 03:47:55 31° 26° (NNE) 03:50:57 145.800 FM
TMSAT-1 02 Aug 04:02:38 04:07:56 70° 102° (ESE) 04:13:11 436.925 FM
Oscar 19 02 Aug 04:03:51 04:07:15 18° 298° (WNW) 04:10:39 437.125 CW, 437.150 USB
Uosat F 02 Aug 04:08:04 04:11:09 16° 92° (E) 04:14:12 435.120 FM
PANSAT 02 Aug 04:12:35 04:14:24 13° 176° (S) 04:16:13 not established
OPAL 02 Aug 04:19:07 04:24:03 72° 255° (WSW) 04:29:01 ?
MaSat-1 02 Aug 04:28:29 04:31:25 15° 45° (NE) 04:34:16 437.345 MHz
Gurwin Techsat 1B 02 Aug 04:30:06 04:35:12 49° 289° (WNW) 04:40:17 435.225 FM
AO-7 02 Aug 04:31:01 04:38:20 33° 97° (E) 04:45:34 29.400 - 29.500 MHz
KITSAT 1 02 Aug 04:36:45 04:43:31 31° 106° (ESE) 04:50:19 435.175 FM
JAS-1B 02 Aug 04:42:53 04:51:31 47° 296° (WNW) 04:58:55 435.800 - 435.900 CW/SSB
ITAMSAT 1 02 Aug 05:04:42 05:06:15 11° 302° (WNW) 05:07:49 435.822 SSB
STRAND 1 02 Aug 05:15:14 05:16:14 11° 58° (ENE) 05:17:14 ?
ISS 02 Aug 05:21:33 05:24:40 36° 223° (SW) 05:27:46 145.800 FM
Saudisat 1A 02 Aug 05:39:07 05:41:49 16° 110° (ESE) 05:44:32 436.775 MHz
TMSAT-1 02 Aug 05:44:10 05:47:14 16° 299° (WNW) 05:50:18 436.925 FM
Uosat F 02 Aug 05:45:22 05:50:17 57° 288° (WNW) 05:55:10 435.120 FM
PANSAT 02 Aug 05:52:36 05:53:49 11° 189° (S) 05:55:03 not established
MaSat-1 02 Aug 06:04:15 06:09:33 87° 65° (ENE) 06:14:28 437.345 MHz
AO-7 02 Aug 06:23:21 06:31:24 55° 295° (WNW) 06:39:23 29.400 - 29.500 MHz
KITSAT 1 02 Aug 06:30:25 06:38:25 61° 305° (NW) 06:46:27 435.175 FM
JAS-1B 02 Aug 06:37:16 06:39:28 11° 318° (NW) 06:41:37 435.800 - 435.900 CW/SSB
Hamsat 02 Aug 06:48:41 06:52:59 61° 101° (E) 06:57:17 145.90 MHz
STRAND 1 02 Aug 06:49:26 06:54:34 81° 75° (ENE) 06:59:44 ?
JAS-2 02 Aug 06:52:01 06:57:30 46° 98° (E) 07:02:32 435.800 - 435.900 CW/SSB, 435.910 FM
Saudisat 1A 02 Aug 07:16:40 07:20:59 53° 306° (NW) 07:25:20 436.775 MHz
SO-67 02 Aug 07:20:57 07:23:24 18° 94° (E) 07:25:49 435.3500 MHz FM
Sapphire 02 Aug 07:32:29 07:35:28 15° 40° (NE) 07:38:27 437.095 MHz 1200 baud AX-25 AFSK
MaSat-1 02 Aug 07:44:28 07:45:57 11° 263° (W) 07:47:24 437.345 MHz
PCSat 02 Aug 08:04:31 08:09:00 25° 48° (NE) 08:13:26 145.825 MHz
AO-7 02 Aug 08:19:14 08:22:21 13° 316° (NW) 08:25:28 29.400 - 29.500 MHz
Hamsat 02 Aug 08:26:32 08:28:26 13° 296° (WNW) 08:30:20 145.90 MHz
KITSAT 1 02 Aug 08:30:21 08:35:40 18° 330° (NNW) 08:40:59 435.175 FM
STRAND 1 02 Aug 08:32:45 08:34:21 11° 271° (W) 08:35:57 ?
JAS-2 02 Aug 08:37:51 08:42:13 23° 298° (WNW) 08:46:18 435.800 - 435.900 CW/SSB, 435.910 FM
SO-67 02 Aug 08:53:35 08:56:27 24° 289° (WNW) 08:59:17 435.3500 MHz FM
Sapphire 02 Aug 09:14:20 09:19:48 80° 60° (ENE) 09:25:12 437.095 MHz 1200 baud AX-25 AFSK
UKube-1 02 Aug 09:25:11 09:28:14 18° 94° (E) 09:31:16 145.840 MHz, 145.915 MHz
PCSat 02 Aug 09:47:26 09:52:41 51° 247° (WSW) 09:57:54 145.825 MHz
HO-68 02 Aug 09:47:30 09:54:29 54° 101° (ESE) 10:01:26 435.675 MHz FM
Oscar 11 02 Aug 10:04:41 10:08:24 27° 96° (E) 10:12:07 145.825 FM, Beacon 2401.500 USB
FUNcube-1 02 Aug 10:39:17 10:42:41 23° 95° (E) 10:46:07 145.950 - 145.970 MHz USB
RS-15 02 Aug 10:44:29 10:48:14 12° 96° (E) 10:51:56 29.354 - 29.394 USB, Beacon 29.352 USB
Sapphire 02 Aug 10:59:57 11:02:29 13° 257° (WSW) 11:05:00 437.095 MHz 1200 baud AX-25 AFSK
UKube-1 02 Aug 11:00:32 11:04:35 38° 290° (WNW) 11:08:35 145.840 MHz, 145.915 MHz
SO-50 02 Aug 11:19:16 11:23:33 48° 117° (ESE) 11:27:55 436.795 FM
HO-68 02 Aug 11:35:49 11:41:49 30° 299° (WNW) 11:47:48 435.675 MHz FM
Oscar 11 02 Aug 11:40:53 11:44:30 26° 291° (WNW) 11:48:07 145.825 FM, Beacon 2401.500 USB
Oscar 19 02 Aug 12:05:29 12:06:32 11° 58° (ENE) 12:07:35 437.125 CW, 437.150 USB
FUNcube-1 02 Aug 12:15:28 12:19:04 28° 290° (WNW) 12:22:42 145.950 - 145.970 MHz USB
KITSAT 1 02 Aug 12:29:15 12:34:45 19° 31° (NNE) 12:40:12 435.175 FM
Oscar 16 02 Aug 12:31:43 12:35:24 20° 64° (ENE) 12:39:05 437.025 USB, Beacon 2401.1428
RS-15 02 Aug 12:47:20 12:58:19 66° 115° (ESE) 13:09:03 29.354 - 29.394 USB, Beacon 29.352 USB
UOSAT-12 02 Aug 12:53:48 12:57:52 32° 114° (ESE) 13:02:02 437.025 FM, 437.400 FM
SO-50 02 Aug 13:00:51 13:04:21 22° 316° (NW) 13:07:55 436.795 FM
ITAMSAT 1 02 Aug 13:02:56 13:06:23 18° 62° (ENE) 13:09:51 435.822 SSB
AO-Echo 02 Aug 13:19:07 13:23:28 27° 66° (ENE) 13:27:50 ?
Uribyol 2 02 Aug 13:20:06 13:24:24 27° 66° (ENE) 13:28:42 436.500 FM
AO-27 02 Aug 13:22:22 13:26:43 28° 66° (ENE) 13:31:04 436.795 MHz FM
JAS-1B 02 Aug 13:34:26 13:42:45 39° 61° (ENE) 13:51:32 435.800 - 435.900 CW/SSB
Oscar 19 02 Aug 13:39:55 13:45:02 82° 75° (ENE) 13:50:11 437.125 CW, 437.150 USB
TMSAT-1 02 Aug 13:46:32 13:49:15 14° 60° (ENE) 13:51:57 436.925 FM
Saudisat 1A 02 Aug 14:05:10 14:07:54 16° 41° (NE) 14:10:37 436.775 MHz
Oscar 16 02 Aug 14:09:25 14:14:22 50° 260° (W) 14:19:22 437.025 USB, Beacon 2401.1428
Gurwin Techsat 1B 02 Aug 14:11:45 14:16:25 32° 67° (ENE) 14:21:06 435.225 FM
KITSAT 1 02 Aug 14:23:50 14:31:53 65° 56° (NE) 14:39:52 435.175 FM
UOSAT-12 02 Aug 14:33:53 14:38:00 31° 312° (NW) 14:42:12 437.025 FM, 437.400 FM
ITAMSAT 1 02 Aug 14:40:16 14:45:24 59° 259° (W) 14:50:33 435.822 SSB
AO-Echo 02 Aug 14:57:02 15:02:01 40° 262° (W) 15:07:00 ?
Uribyol 2 02 Aug 14:58:55 15:03:42 37° 262° (W) 15:08:30 436.500 FM
RS-15 02 Aug 15:01:08 15:11:19 40° 319° (NW) 15:21:27 29.354 - 29.394 USB, Beacon 29.352 USB
AO-27 02 Aug 15:01:16 15:06:04 37° 262° (W) 15:10:53 436.795 MHz FM
Uosat F 02 Aug 15:20:55 15:24:50 23° 65° (ENE) 15:28:46 435.120 FM
TMSAT-1 02 Aug 15:23:11 15:28:29 79° 257° (WSW) 15:33:48 436.925 FM
Oscar 19 02 Aug 15:23:39 15:24:59 11° 271° (W) 15:26:19 437.125 CW, 437.150 USB
JAS-1B 02 Aug 15:23:42 15:32:39 60° 261° (W) 15:42:28 435.800 - 435.900 CW/SSB
AO-7 02 Aug 15:29:32 15:37:19 45° 62° (ENE) 15:45:06 29.400 - 29.500 MHz
Saudisat 1A 02 Aug 15:43:35 15:47:59 73° 240° (WSW) 15:52:21 436.775 MHz
Gurwin Techsat 1B 02 Aug 15:51:38 15:56:19 32° 264° (W) 16:01:03 435.225 FM
KITSAT 1 02 Aug 16:20:07 16:26:40 28° 255° (WSW) 16:33:13 435.175 FM
OPAL 02 Aug 16:29:24 16:33:53 30° 98° (E) 16:38:22 ?
Uosat F 02 Aug 16:58:36 17:03:22 42° 261° (W) 17:08:09 435.120 FM
JAS-2 02 Aug 17:02:58 17:09:00 27° 63° (ENE) 17:14:39 435.800 - 435.900 CW/SSB, 435.910 FM
RS-15 02 Aug 17:20:27 17:27:54 20° 353° (N) 17:35:23 29.354 - 29.394 USB, Beacon 29.352 USB
AO-7 02 Aug 17:22:19 17:30:05 42° 261° (W) 17:37:55 29.400 - 29.500 MHz
JAS-1B 02 Aug 17:22:28 17:25:09 11° 281° (W) 17:27:55 435.800 - 435.900 CW/SSB
Hamsat 02 Aug 17:41:55 17:45:50 41° 72° (ENE) 17:49:48 145.90 MHz
OPAL 02 Aug 18:08:11 18:12:43 33° 294° (WNW) 18:17:18 ?
JAS-2 02 Aug 18:45:53 18:53:34 65° 259° (WSW) 19:00:39 435.800 - 435.900 CW/SSB, 435.910 FM
STRAND 1 02 Aug 19:00:53 19:05:13 27° 95° (E) 19:09:31 ?
Hamsat 02 Aug 19:19:25 19:22:00 16° 268° (W) 19:24:37 145.90 MHz
SO-67 02 Aug 19:25:41 19:29:08 80° 258° (WSW) 19:32:38 435.3500 MHz FM
RS-15 02 Aug 19:36:26 19:45:30 28° 29° (NNE) 19:54:42 29.354 - 29.394 USB, Beacon 29.352 USB
SO-50 02 Aug 19:50:55 19:55:27 43° 52° (NE) 20:00:02 436.795 FM
MaSat-1 02 Aug 19:54:51 19:58:42 39° 107° (ESE) 20:03:07 437.345 MHz
HO-68 02 Aug 20:15:51 20:22:24 40° 64° (ENE) 20:28:56 435.675 MHz FM
UKube-1 02 Aug 20:21:04 20:23:53 17° 64° (ENE) 20:26:43 145.840 MHz, 145.915 MHz
JAS-2 02 Aug 20:38:23 20:39:32 10° 274° (W) 20:40:40 435.800 - 435.900 CW/SSB, 435.910 FM
STRAND 1 02 Aug 20:39:50 20:44:26 35° 292° (WNW) 20:48:59 ?
Oscar 11 02 Aug 21:00:01 21:03:18 22° 67° (ENE) 21:06:35 145.825 FM, Beacon 2401.500 USB
UOSAT-12 02 Aug 21:23:23 21:27:32 29° 47° (NE) 21:31:38 437.025 FM, 437.400 FM
SO-50 02 Aug 21:32:00 21:35:47 24° 248° (WSW) 21:39:36 436.795 FM
MaSat-1 02 Aug 21:32:37 21:36:10 24° 309° (NW) 21:40:06 437.345 MHz
FUNcube-1 02 Aug 21:36:14 21:39:16 19° 67° (ENE) 21:42:17 145.950 - 145.970 MHz USB
RS-15 02 Aug 21:48:51 21:59:57 78° 56° (NE) 22:11:27 29.354 - 29.394 USB, Beacon 29.352 USB
UKube-1 02 Aug 21:55:33 21:59:44 45° 260° (W) 22:03:57 145.840 MHz, 145.915 MHz
ISS 02 Aug 22:03:10 22:06:30 84° 142° (SE) 22:09:51 145.800 FM
HO-68 02 Aug 22:03:25 22:10:02 40° 262° (W) 22:16:42 435.675 MHz FM
Oscar 11 02 Aug 22:35:25 22:39:17 33° 263° (W) 22:43:11 145.825 FM, Beacon 2401.500 USB
PCSat 02 Aug 22:47:00 22:50:59 21° 106° (ESE) 22:54:59 145.825 MHz
UOSAT-12 02 Aug 23:03:26 23:07:44 36° 245° (WSW) 23:11:58 437.025 FM, 437.400 FM
FUNcube-1 02 Aug 23:11:32 23:15:27 35° 262° (W) 23:19:20 145.950 - 145.970 MHz USB
ISS 02 Aug 23:41:00 23:43:34 20° 341° (NNW) 23:46:08 145.800 FM
Sapphire 02 Aug 23:55:39 00:01:03 79° 117° (ESE) 00:06:29 437.095 MHz 1200 baud AX-25 AFSK
RS-15 03 Aug 00:02:24 00:11:13 29° 256° (WSW) 00:20:20 29.354 - 29.394 USB, Beacon 29.352 USB
PCSat 03 Aug 00:28:42 00:33:59 53° 303° (WNW) 00:39:18 145.825 MHz
ISS 03 Aug 01:19:37 01:21:15 13° 1° (N) 01:22:54 145.800 FM
Sapphire 03 Aug 01:41:26 01:45:07 18° 316° (NW) 01:48:48 437.095 MHz 1200 baud AX-25 AFSK
Oscar 19 03 Aug 01:52:11 01:56:42 30° 96° (E) 02:01:12 437.125 CW, 437.150 USB
